Theta_e
351 350 351 350 350 350 349 349 349 349 350 348 345 343 344 344 343 344 344 344 344 343 345 346 347 348 350 350 349 347 346 344 343 342 342 342 343 345 347 348 345 344
351 351 351 349 349 350 349 348 348 349 348 347 346 344 345 346 345 344 344 344 343 344 345 345 347 347 348 349 349 349 348 345 344 343 341 342 343 343 345 346 345 345
349 350 350 348 348 349 348 348 347 347 346 344 344 345 345 346 347 345 345 345 343 344 345 344 345 345 346 348 349 348 348 346 345 344 343 342 343 343 344 345 345 346
345 346 347 347 346 346 346 347 347 345 344 343 342 343 344 346 348 348 348 348 346 345 345 344 344 344 344 346 346 345 346 346 346 346 345 343 343 344 345 346 346 346
341 341 343 344 344 343 343 345 345 344 342 342 342 343 345 347 348 349 350 350 349 349 347 344 344 344 342 344 343 342 344 345 345 346 345 344 344 344 346 348 348 348
337 339 339 341 342 341 340 340 341 342 340 341 342 342 345 347 348 348 349 349 350 350 347 343 344 343 342 343 343 342 343 343 343 345 345 344 344 345 346 348 349 349
334 334 335 337 338 338 338 337 338 339 340 340 341 342 344 346 347 348 348 347 348 348 347 343 342 343 342 342 343 342 343 343 343 344 344 345 345 345 346 346 348 349
335 334 332 332 334 335 335 335 335 336 338 339 341 342 344 345 346 347 348 348 347 346 345 343 342 342 342 342 343 342 342 343 344 343 343 344 344 343 344 344 345 348
338 338 336 334 333 333 333 333 333 334 335 337 340 342 345 346 346 346 347 348 348 346 344 343 341 341 341 341 342 342 342 343 344 344 344 344 342 342 343 342 343 346
344 342 342 340 338 335 333 333 333 334 336 337 339 342 344 345 346 347 347 348 348 346 345 344 341 339 340 340 340 340 341 342 343 343 343 343 344 344 344 344 343 343
350 347 345 345 344 342 339 337 336 336 339 341 342 343 344 346 347 348 348 347 345 344 343 344 342 340 339 338 337 338 339 339 340 340 340 340 341 344 346 346 346 344
351 351 349 347 345 343 341 341 341 341 342 344 345 345 345 346 348 349 349 347 344 342 341 341 342 341 340 338 337 337 337 337 338 338 338 338 338 339 342 345 347 345
351 354 353 349 346 344 341 340 343 345 346 347 347 347 346 345 347 348 349 349 347 344 341 340 341 341 340 340 339 339 339 337 336 336 336 336 335 336 337 339 341 342
353 354 354 352 352 351 347 341 340 344 349 350 349 348 348 346 346 346 347 348 348 347 344 343 342 341 341 340 340 340 340 339 337 336 335 334 335 335 335 335 336 336
354 354 354 354 354 354 352 349 345 343 349 352 351 350 349 348 347 346 346 346 347 347 347 346 344 343 342 341 340 340 340 339 337 336 335 334 334 334 334 334 334 333
355 354 353 353 354 354 352 352 351 348 349 351 351 350 349 348 348 347 347 346 345 345 346 345 345 345 343 342 341 340 339 337 336 334 334 334 334 333 333 333 333 333
354 353 353 352 353 353 351 351 351 351 351 352 351 349 348 347 347 347 347 347 346 345 344 344 343 344 343 342 342 341 340 339 337 335 333 332 332 332 331 331 330 330
352 351 352 352 351 352 351 350 350 351 351 352 352 350 348 346 346 346 346 347 348 346 344 343 343 342 342 342 342 341 341 342 341 340 338 336 333 331 330 330 329 329
352 351 351 351 351 351 350 350 350 350 351 351 351 350 349 347 345 345 345 346 347 347 345 344 344 343 342 342 341 342 342 343 343 342 342 341 338 335 333 331 330 330
353 353 352 352 352 351 351 351 351 351 351 351 350 350 349 348 346 345 344 345 347 348 347 345 344 344 344 343 342 342 343 344 344 344 344 344 343 342 340 337 335 334
354 354 353 352 352 352 352 352 352 352 352 352 351 350 349 349 348 346 344 345 347 348 347 346 345 345 344 344 344 344 344 345 345 345 345 345 345 345 345 344 342 341
351 352 352 352 352 352 351 352 352 353 353 352 352 351 351 349 348 347 345 344 345 347 348 347 347 346 345 344 344 345 346 346 346 346 347 347 347 346 346 346 345 345
347 348 350 351 352 352 352 352 352 353 353 352 352 352 351 349 347 347 346 345 345 346 347 348 348 348 346 345 345 345 345 346 346 347 347 347 348 348 347 347 347 346
340 342 344 346 347 349 350 351 351 352 352 352 352 352 351 350 349 347 347 347 346 345 346 347 348 349 349 348 347 346 347 348 348 348 348 348 348 348 348 348 348 347
329 332 333 335 336 338 342 345 349 350 351 351 352 352 352 352 351 350 349 349 348 347 346 345 346 347 348 349 349 349 349 349 349 349 348 348 347 348 348 348 348 348
325 327 330 331 331 331 333 336 339 344 347 348 350 351 351 352 353 353 352 351 351 350 348 347 346 346 346 347 348 348 349 349 349 349 349 348 348 348 348 348 347 347
Wind_Speed
24 24 23 21 21 20 19 18 17 16 15 15 15 13 13 12 12 13 13 13 13 13 13 13 13 12 12 11 10 10 10 11 11 11 13 14 14 14 14 12 12 13
25 25 24 22 21 22 20 18 17 17 16 15 14 13 13 14 13 13 14 14 13 12 13 13 12 12 11 11 11 10 10 10 10 11 12 12 13 14 15 13 13 14
27 26 25 24 22 22 22 19 17 17 16 16 15 13 14 15 14 13 13 14 13 12 12 12 12 12 11 12 12 11 10 10 10 11 11 12 13 14 14 14 14 15
29 27 26 25 22 21 21 20 19 18 17 17 16 14 14 14 14 13 13 13 12 11 11 12 12 12 11 12 12 11 10 10 11 11 11 12 13 13 13 14 15 16
29 28 27 26 24 21 20 20 20 19 19 18 16 16 15 14 14 14 14 14 13 11 12 13 13 13 12 12 12 11 10 11 11 12 12 12 13 14 14 14 15 15
29 28 27 26 25 23 21 20 20 20 19 18 18 18 17 16 16 16 16 15 14 14 14 14 14 14 12 12 12 12 11 11 11 12 12 11 12 14 15 15 14 14
28 28 28 27 26 25 23 21 20 20 20 19 19 19 19 18 18 17 17 16 15 15 15 15 16 15 14 13 13 13 13 12 11 12 12 11 12 13 14 14 14 14
27 27 27 28 27 26 25 23 21 20 20 19 19 20 20 19 18 18 18 17 16 15 16 16 16 16 15 15 14 14 14 13 13 12 12 12 12 13 13 13 13 14
26 26 26 26 27 27 26 24 23 21 20 21 21 21 21 20 19 19 19 18 17 17 16 16 16 16 15 16 15 15 15 14 14 14 13 13 13 13 12 12 13 13
26 25 24 24 24 25 26 25 24 23 21 22 22 21 22 21 20 20 20 20 20 18 17 17 18 17 16 16 16 15 15 15 15 15 15 14 13 13 12 11 12 13
26 26 25 24 24 23 24 24 24 24 22 22 22 22 22 22 21 21 21 21 21 20 19 18 19 19 18 17 17 16 16 16 17 17 16 16 15 14 12 11 12 13
26 28 27 25 25 24 24 24 24 24 23 22 23 23 23 23 23 23 23 23 22 21 20 19 19 20 19 19 18 16 16 16 16 17 18 17 16 16 15 14 14 14
28 29 28 26 25 25 25 25 24 25 25 24 23 23 24 24 24 25 26 26 24 22 21 20 19 19 20 20 19 18 17 17 16 16 17 17 17 16 16 16 16 16
29 30 30 28 27 26 25 25 24 25 26 26 25 24 24 24 25 26 27 28 28 26 23 21 20 20 20 20 20 20 19 19 18 17 17 17 17 17 17 17 16 16
29 30 31 30 30 29 27 26 26 25 26 27 27 27 26 26 25 26 27 28 29 28 25 23 21 21 20 20 21 21 21 21 21 20 19 18 18 18 18 18 18 18
26 28 30 32 32 32 30 29 28 27 27 28 29 29 29 28 27 27 28 29 29 28 27 25 24 22 21 20 20 20 21 22 23 23 22 22 21 21 21 21 20 20
23 24 26 29 30 31 31 30 29 28 28 28 29 30 30 30 29 28 29 30 31 30 28 27 25 23 21 20 19 18 18 20 21 22 23 24 24 24 23 22 22 21
21 21 22 23 24 25 27 27 28 29 29 29 30 30 30 30 30 31 30 30 31 33 32 30 27 24 22 21 20 19 19 19 19 20 21 23 24 25 26 25 24 23
16 16 17 18 18 19 20 22 25 27 29 31 32 31 31 31 30 31 31 31 32 33 34 33 31 28 26 24 22 21 21 21 21 21 21 20 21 22 24 25 25 25
12 12 13 14 15 15 16 18 21 25 28 31 32 32 32 31 30 30 31 31 32 34 35 34 33 31 29 28 26 24 21 22 24 24 23 22 21 20 20 20 21 22
11 11 11 11 13 15 16 18 21 23 26 28 31 33 33 32 30 30 32 32 31 33 35 35 34 32 31 29 29 27 25 24 25 26 26 26 25 24 22 22 21 21
7 8 9 10 12 14 16 18 20 22 23 25 27 29 31 31 30 30 33 33 31 30 31 33 32 32 31 30 29 29 29 28 28 28 28 28 28 28 27 27 26 26
4 4 6 8 11 13 14 15 16 17 18 21 22 23 25 26 28 29 31 33 33 31 30 29 28 29 29 29 29 29 29 29 29 29 29 29 29 29 30 31 31 31
3 5 5 6 9 11 11 12 14 15 15 16 17 19 20 22 25 27 28 30 33 34 33 31 29 28 28 28 29 29 28 28 27 27 28 28 28 29 30 31 32 32
4 2 1 2 4 6 6 7 12 14 14 14 14 14 15 18 21 23 25 27 29 32 34 34 33 32 31 30 30 29 29 28 28 29 30 31 32 32 33 33 33 33
7 6 5 4 4 4 5 4 7 10 11 12 13 12 13 14 16 18 21 23 25 28 31 33 35 36 36 35 35 34 33 33 33 34 36 37 38 38 38 38 39 39
Wind_Direction
201 200 203 206 208 210 209 209 212 212 210 210 210 210 208 205 204 206 211 214 214 216 217 219 223 226 232 236 230 226 228 229 224 221 223 224 222 222 222 220 216 212
201 201 206 209 208 211 214 215 215 214 213 214 212 212 212 210 211 212 214 217 215 216 220 220 221 228 235 236 235 233 232 230 225 222 224 223 222 222 223 223 216 210
204 204 208 212 211 211 214 216 217 216 215 216 214 214 213 209 211 215 214 215 215 216 223 222 218 224 229 230 235 237 233 232 227 224 226 223 222 223 221 223 221 215
208 209 211 214 214 213 214 215 218 217 216 217 216 216 215 210 211 214 212 215 218 221 227 225 220 222 223 226 233 233 230 231 229 227 229 226 225 225 222 225 226 223
210 213 214 215 216 216 215 214 216 217 216 216 216 215 217 217 216 216 217 221 224 228 230 227 225 224 220 222 230 233 231 231 231 230 231 228 228 229 228 230 232 231
210 214 217 218 218 220 221 218 215 216 217 216 217 216 217 219 222 221 222 225 227 231 232 228 226 225 223 223 228 232 233 232 232 233 233 232 232 232 232 233 235 236
212 215 219 220 221 223 226 226 222 219 219 218 219 220 219 220 224 225 226 230 231 232 232 231 229 226 223 224 228 230 231 232 233 233 234 234 235 236 237 237 238 240
213 214 218 221 222 224 226 229 229 227 224 223 221 222 224 225 227 227 228 231 235 235 234 233 233 231 226 225 229 231 231 232 233 234 234 232 233 236 242 245 246 245
215 215 218 221 223 224 225 226 229 231 231 230 227 224 225 229 230 230 230 233 238 240 238 237 237 235 232 231 233 234 236 235 235 238 240 238 236 239 245 251 252 251
217 217 217 220 224 226 227 226 226 229 230 232 232 229 228 229 230 232 233 235 239 242 241 242 241 240 239 237 236 237 239 240 241 243 246 247 247 246 247 253 256 257
218 221 218 217 220 224 228 230 229 227 227 230 233 233 232 231 231 234 236 237 240 243 243 242 243 244 245 243 241 239 239 241 244 246 248 250 249 246 244 250 258 261
216 221 221 218 217 219 222 226 229 229 228 230 233 235 235 234 233 236 240 241 242 244 245 243 242 243 246 247 247 245 243 244 245 247 250 251 251 250 250 252 257 260
214 218 223 224 223 222 221 221 223 226 228 231 234 236 238 237 235 237 241 245 247 247 247 245 244 244 245 247 248 248 250 251 250 250 251 251 254 256 258 260 261 263
215 218 223 226 227 227 226 224 222 223 226 232 235 236 237 238 238 240 242 245 249 251 251 250 250 249 248 247 247 248 251 254 255 255 254 255 257 258 261 265 266 268
220 221 224 226 228 230 229 226 224 223 224 230 235 237 237 238 239 242 245 246 249 251 252 254 255 255 254 252 251 252 253 254 256 256 256 257 258 259 261 263 266 268
222 224 226 227 229 231 230 227 225 225 223 226 233 237 239 239 239 240 243 246 249 250 251 252 255 258 260 259 258 258 259 258 258 257 256 256 257 259 260 261 263 266
222 226 229 231 232 233 234 232 229 228 227 226 230 235 238 240 241 241 242 244 246 248 249 250 251 255 258 260 262 263 264 264 263 262 260 258 257 257 258 260 262 264
223 225 227 230 232 233 234 235 234 234 234 233 234 236 238 239 242 243 243 243 243 244 246 248 250 252 255 257 260 263 265 267 268 268 267 264 261 259 259 260 261 263
217 218 219 223 229 230 230 231 232 236 238 239 240 240 238 237 241 243 243 243 242 242 243 246 248 251 254 255 258 261 264 265 266 268 270 271 270 267 264 263 264 266
192 200 209 217 224 228 227 227 229 233 236 238 240 240 238 240 243 241 237 238 240 241 243 245 246 250 254 256 258 260 262 264 266 267 269 272 274 274 272 269 269 270
180 192 202 213 222 227 229 229 228 229 232 234 236 236 238 243 245 239 232 232 235 238 241 243 245 248 252 254 256 257 258 261 263 264 267 270 272 274 274 274 273 273
196 204 207 219 232 233 231 230 229 230 231 232 235 236 238 240 239 236 231 229 231 235 237 240 242 245 248 248 248 249 250 252 255 258 260 264 267 269 270 272 273 273
260 251 226 229 242 242 235 232 234 238 239 238 239 240 241 240 238 236 233 231 232 234 234 235 236 239 242 244 244 244 244 245 247 249 252 256 260 263 264 266 268 269
322 299 273 254 256 256 250 243 242 246 251 251 249 246 244 244 242 241 239 238 237 236 236 237 238 236 236 238 239 240 240 241 243 246 250 253 257 260 262 264 265 265
90 64 347 291 278 277 276 258 247 249 257 262 261 258 254 251 248 246 244 244 242 241 239 240 243 243 241 240 240 240 240 241 245 249 254 257 260 263 264 265 266 266
104 102 94 70 37 13 2 328 270 256 261 265 264 264 264 262 259 255 251 248 247 246 244 243 244 246 246 246 248 249 250 251 252 255 258 262 265 267 267 267 267 267